Location: Peterborough
(44.3091°N, 78.3197°W)
Time: 20:10:11
(UTC-04:00)

Courier 1B Rocket - Pass Details

Date: 31 March 2023
Orbit: 920 x 1202 km, 28.2° (Epoch: 04 June)

Event Time Altitude Azimuth Distance (km) Brightness Sun altitude
Rises 20:35:27 0° 242° (WSW) 3,981 8.9 -10.7°
Reaches altitude 10° 20:39:02 10° 228° (SW) 2,974 7.9 -11.3°
Maximum altitude 20:44:13 21° 182° (S) 2,189 6.7 -12.2°
Enters shadow 20:48:37 12° 140° (SE) 2,693 6.8 -12.9°
